437  
ASUS44 KSHV 241410  
RWRSHV  
 
WEATHER ROUNDUP FOR THE FOUR STATE AREA  
NATIONAL WEATHER SERVICE SHREVEPORT LA  
900 AM CDT MON SEP 24 2018  
 
NOTE: "FAIR" INDICATES FEW OR NO CLOUDS BELOW 12000 FEET  
WITH NO SIGNIFICANT WEATHER AND/OR S TO VISIBILITY
.  
 
!LAZ001-LAZ014-TXZ097-241500  
SHREVEPORT...MONROE...TEXARKANA RADIOS  
 
CITY SKY/WX TMP DP RH WIND PRES REMARKS
 
SHREVEPORT MOSUNNY 75 73 93 SW6 29.91R  
MONROE CLOUDY 76 74 93 S5 29.95S  
NATCHITOCHES CLOUDY 76 74 93 S5 29.93S  
TEXARKANA CLOUDY 69 69 100 CALM 29.92R FOG  

 
 
!LAZ001-LAZ014-TXZ097-241500  
OTHER LOCATIONS...  
 
CITY SKY/WX TMP DP RH WIND PRES REMARKS
 
DOWNTOWN SHV MOSUNNY 77 73 87 SW5 29.92R  
BOSSIER CITY N/A 77 71 80 SW3 29.91R  
RUSTON CLOUDY 74 73 95 CALM 29.98S FOG  
LITTLE ROCK DRZL/FOG 67 67 100 CALM 29.95F VSB 1/8  
EL DORADO CLOUDY 75 75 100 SE6 29.94R  
JACKSON PTSUNNY 76 73 91 SE7 29.99R  
NEW ORLEANS PTSUNNY 84 77 79 SE7 29.96R  
HOUSTON MOSUNNY 77 72 84 CALM 29.94R  
LUFKIN CLOUDY 73 71 93 SW5 29.94R  
TYLER CLOUDY 72 71 97 S6 29.92R FOG  
DAL FT WORTH CLOUDY 73 68 84 CALM 29.90S  

 
 
!TXZ136-TXZ165-241500  
TYLER...LUFKIN RADIOS  
 
CITY SKY/WX TMP DP RH WIND PRES REMARKS
 
TYLER CLOUDY 72 71 97 S6 29.92R FOG  
GILMER CLOUDY 71 71 99 CALM 29.92S  
LONGVIEW PTSUNNY 74 73 97 SW5 29.92R  
LUFKIN CLOUDY 73 71 93 SW5 29.94R  

 
 
!TXZ136-TXZ165-241500  
OTHER LOCATIONS...  
 
CITY SKY/WX TMP DP RH WIND PRES REMARKS
 
NACOGDOCHES N/A 73 70 90 SW3 29.94R  
BEAUMONT N/A 80 69 69 CALM 29.94R  
HOUSTON MOSUNNY 77 72 84 CALM 29.94R  
COLLEGE STN CLOUDY 72 72 100 SW5 29.94R  
AUSTIN CLOUDY 74 70 87 CALM 29.95R  
DAL FT WORTH CLOUDY 73 68 84 CALM 29.90S  
TEXARKANA CLOUDY 69 69 100 CALM 29.92R FOG  
SHREVEPORT MOSUNNY 75 73 93 SW6 29.91R  
FORT POLK CLOUDY 76 73 92 W5 29.92S  
LAKE CHARLES N/A 77 75 93 SE6 29.93R  

 
 
 
CLICK HERE TO GO TO PREVIOUS BULLETINS.

The Nexlab LA Page
The Nexlab TX Page
The Nexlab AR Page
The Nexlab OK Page Main Text Page